Погода Узловая

Погода Узловая : погода сейчас, прогноз погоды и архив. Всё, что Вы хотите узнать о погоде Узловая!

Поиск расширенной информации на нашем сайте:

Другие новости

Новости СМИ2

Главная страница сайта

Новости сайта

02.10.2013

Напоминаем, что на нашем новом сайте вы можете получить высокодетализированные прогнозы погоды по пунктам России, СНГ и мира (включающие важные для авиации метеовеличины, такие как направление и скорость ветра, видимость, явления погоды, количество и форма облачности, нижняя и верхняя граница облачности), а также ознакомиться с разнообразными материалами по авиационной метеорологии и подборкой полезных ссылок на эту тему.

Сайт Метеоцентр.Азия посвящён разработке технологий оптимизации авиаметеорологического обслуживания, включая проектирование и перспективное создание нескольких автоматизированных авиаметеорологических систем:
- система выпуска высокодетальных прогностических карт явлений погоды для нижнего воздушного пространства по России и ближнему зарубежью;
- система верификации прогнозов TAF (выпускаемых синоптиками официальных АМСГ РФ и ближнего зарубежья) и AUTOTAF (выпускаемых сайтом Метеоцентр.Азия) - выявление ошибок, онлайн-сопоставление с фактической погодой METAR, автоматическое внесение коррективов в прогнозы при резком отклонении фактической погоды от прогноза, подсчёт оправдываемости прогнозов по элементам и в целом;
- система обработки, анализа и отображения авиаметеорологической информации для применения провайдерами метеорологической информации.


Погода Узловая - сегодня

Время (UTC), дата Ветер
(°,м/с) 
Видим.   Явления Облачность Т
(°С)
Тd
(°С)
f(%) Тe
(°С)
Pmin
(гПа)
dP
(гПа)
Po
(мм)
O2
(г/м3)
Тmin Tmax R s Состояние
почвы
21 17.01.17 300 (СЗ) 9000 м  дымка  10/10 600 м 
[Sc]
-8.4 -9.5 92 -8  1034.3  0.5  753  314           
00 18.01.17 тихо ()   7000 м  дымка{снег}  10/0 средняя 
[As op]
-6.7 -7.6 93 -7  1034.8  0.6  754  312           
03 18.01.17 270 (З) 8000 м  дымка  10/10 300 м 
[St]
-4.7 -5.6 93 -4  1034.6  0.1  754  310  -12.4    0.0     
06 18.01.17 340 (С) 9000 м  дымка  3/3 600 м 
[Sc]
-5.3 -6.7 90 -7  1035.8  1.1  754  311  -12.4    0.0  39  равномерный
сухой снег
100% 
09 18.01.17 280 (З) 15000 м    3/3 300 м средняя 
[St|Ac cast]
-4.8 -8 78 -4  1036.6  0.8  755  311           
12 18.01.17 300 (СЗ) 24000 м    3/0 средняя 
[Ac cast]
-4.3 -8.1 75 -6  1036.3  -0.2  755  310           
15 18.01.17 260 (З) 10 км    9/3 600 м средняя 
[Sc|Ac trans]
-8.1 -9.9 87 -8  1036.8  755  314           
18 18.01.17 260 (З) 11000 м    ясно 
-9.4 -11 88 -9  1036.5  -0.4  755  316    -3.6       
21 18.01.17 270 (З) 17000 м    4/0 верхняя 
[Ci sp]
-9 -11 85 -9  1035.3  -1.2  754  315           
00 19.01.17 240 (ЮЗ) 13000 м    9/9 600 м 
[Sc]
-10.2 -11.5 90 -12  1034.3  -1  753  316           
03 19.01.17 250 (З) 11000 м    10/0 средняя 
[As trans]
-10 -11.3 90 -13  1033.4  -0.9  752  316  -10.4         
06 19.01.17 250 (З) 10 км    8/3 300 м средняя 
[St|Ac trans]
-10.4 -11.7 90 -13  1032.6  -0.8  752  316  -10.8      39  равномерный
сухой снег
100% 
09 19.01.17 260 (З) 4{11}  18000 м  позёмок  9/9 1000 м 
[Sc]
-7.5 -10.1 82 -11  1031.1  -1.1  751  312           
12 19.01.17 250 (З) 4{10}  24000 м  позёмок  10/10 1000 м 
[Sc]
-5 -8.6 76 -8  1028.3  -2.6  749  308           
15 19.01.17 240 (ЮЗ) 4{10}  15000 м    10/10 600 м 
[Sc]
-6 -8.3 84 -9  1025.8  -2.5  747  309           
18 19.01.17 250 (З) 5-12  13000 м  позёмок  10/10 600 м 
[Sc]
-5.6 -7.4 87 -10  1022.9  -2.7  745  307    -5       
21 19.01.17 250 (З) 5{12}  10 км  позёмок  9/9 600 м 
[Sc]
-5.3 -7.1 87 -9  1020.9  -1.9  744  306           
00 20.01.17 250 (З) 6-12{14}  14000 м  позёмок  10/10 300 м 
[St]
-5.6 -7.4 87 -10  1018.1  -2.7  742  306           
03 20.01.17 260 (З) 6-12{13}  17000 м  позёмок  10/10 300 м 
[St]
-5.8 -7.6 87 -10  1016.2  -2  740  305  -6         
06 20.01.17 270 (З) 4{12}  12000 м    10/10 300 м 
[St]
-5.2 -6.9 88 -8  1016.5  0.4  740  305  -6      33  равномерный
сухой снег
100% 
09 20.01.17 260 (З) 15000 м    10/10 600 м 
[Sc]
-4 -5.9 87 -7  1016.3  -0.1  740  303           
12 20.01.17 270 (З) 22000 м    9/9 600 м 
[Sc]
-2.1 -4.6 83 -4  1015.5  -0.5  740  301           
15 20.01.17 290 (З) 22000 м    9/9 300 м 
[St]
-1.4 -4.1 82 -3  1016.2  0.7  740  300           
18 20.01.17 290 (З) 25000 м    3/1 300 м верхняя 
[St|Ci sp]
-3.6 -8.8 67 -5  1016.6  0.2  741  303    -1.3       
21 20.01.17 210 (ЮЗ) 17000 м    6/0 верхняя 
[Ci sp]
-9.2 -11.7 82 -9  1016.9  -0.4  740  310           
Время (UTC), дата Ветер
(°,м/с) 
Видим.   Явления Облачность Т
(°С)
Тd
(°С)
f(%) Тe
(°С)
Pmin
(гПа)
dP
(гПа)
Po
(мм)
O2
(г/м3)
Тmin Tmax R s Состояние
почвы

Для получения пояснительной информации подведите курсор к названию столбца.

ПОГОДА Узловая - архив

Всё, что Вы хотите узнать о погоде Узловая - удобно и подробно!

Выберите нужную дату (начиная с 1 января 2015* года) и нажмите кнопку "Найти".
Будут отображены архивные сводки погоды по пункту Узловая, начиная с указанной даты.


Отображать данные в формате CSV (для использования в таблицах Excel)


Внимание! Наш архив погоды предназначен исключительно для личного некоммерческого использования в познавательных целях. Если Вам необходимы официальные справки о состоянии погоды (для производственных, юридических, коммерческих и т.п. целей), обращайтесь в органы Росгидромета.

*Примечание: данная дата относится к архиву по метеостанциям СССР (Россия, СНГ, Балтия).
Архив по метеостанциям Зарубежной Европы и Азии (кроме Китая) хранится 10 дней, по другим регионам земного шара (Китай, Африка, Америка, Австралия, Океания) - 1 день.

Узловая - район местоположения метеостанции


Название, широта, долгота, высота метеостанции:
Узловая 54°ш. 38.1°д. 231 м над ур. моря [Российская Федерация]

Дополнительная информация

В oтличие oт бoльшинства пoгoдных сайтoв мы публикуем пoдрoбную метеoинфoрмацию в детальнoм прoфессиoнальнoм фoрмате.

Характеристики температуры и влажнoсти вoздуха измеряются на высoте 2 м в тени вдали oт зданий и деревьев.
Скoрoсть ветра измеряется на высoте 10 м (на урoвне рoста челoвека скoрoсть ветра ниже в 1.5-2 раза). Если метеoстанция нахoдится в гoрoде или в лесу, тo скoрoсть ветра занижена на 2-4 м/с пo сравнению с oткрытым местoм. Скoрoсть ветра над акватoриями крупных рек и oзёр, а также на вершинах хoлмoв на 2-5 м/с выше, чем в oбычных услoвиях.
Атмoсфернoе давление в разных тoчках местнoсти мoжет значительнo oтличаться oт давления на метеoстанции, в зависимoсти oт услoвий рельефа (при пoдъёме на 10 м давление пoнижается примернo на 1 мм рт.ст.).